Date,TemperatureHighF,TemperatureAvgF,TemperatureLowF,DewpointHighF,DewpointAvgF,DewpointLowF,HumidityHigh,HumidityAvg,HumidityLow,PressureMaxIn,PressureMinIn,WindSpeedMaxMPH,WindSpeedAvgMPH,GustSpeedMaxMPH,PrecipitationSumIn
2013-1-7,57,50,44,-100,-100,-100,0,0,100,0.00,40.00,0,-999,0,0.00
2013-1-8,89,49,40,-100,-100,-100,0,0,100,0.00,40.00,0,-999,0,0.00
2013-1-9,83,55,45,-100,-100,-100,0,0,100,0.00,40.00,0,-999,0,0.00
2013-1-10,80,48,41,-100,-100,-100,0,0,100,0.00,40.00,0,-999,0,0.00
2013-1-11,54,45,35,-100,-100,-100,0,0,100,0.00,40.00,0,-999,0,0.00
2013-1-12,56,44,37,-100,-100,-100,0,0,100,0.00,40.00,0,-999,0,0.00
2013-1-13,55,40,31,-100,-100,-100,0,0,100,0.00,40.00,0,-999,0,0.00
2013-1-14,70,43,33,-100,-100,-100,0,0,100,0.00,40.00,0,-999,0,0.00
2013-1-15,82,64,53,-100,-100,-100,0,0,100,0.00,40.00,0,-999,0,0.00
2013-1-16,90,64,49,-100,-100,-100,0,0,100,0.00,40.00,0,-999,0,0.00
2013-1-17,97,56,42,-100,-100,-100,0,0,100,0.00,40.00,0,-999,0,0.00
2013-1-18,82,64,50,-100,-100,-100,0,0,100,0.00,40.00,0,-999,0,0.00
2013-1-19,86,67,53,-100,-100,-100,0,0,100,0.00,40.00,0,-999,0,0.00
2013-1-20,80,64,51,-100,-100,-100,0,0,100,0.00,40.00,0,-999,0,0.00
2013-1-21,87,63,51,-100,-100,-100,0,0,100,0.00,40.00,0,-999,0,0.00
2013-1-22,87,66,54,-100,-100,-100,0,0,100,0.00,40.00,0,-999,0,0.00
2013-1-23,87,66,54,-100,-100,-100,0,0,100,0.00,40.00,0,-999,0,0.00
2013-1-24,69,57,53,-100,-100,-100,0,0,100,0.00,40.00,0,-999,0,0.00
2013-1-25,84,78,73,-100,-100,-100,0,0,100,0.00,40.00,0,-999,0,0.00
2013-1-26,87,70,53,-100,-100,-100,0,0,100,0.00,40.00,0,-999,0,0.00
2013-1-27,62,55,50,-100,-100,-100,0,0,100,0.00,40.00,0,-999,0,0.00
2013-1-28,62,52,42,-100,-100,-100,0,0,100,0.00,40.00,0,-999,0,0.00
2013-1-29,62,51,42,-100,-100,-100,0,0,100,0.00,40.00,0,-999,0,0.00
2013-1-30,83,56,45,-100,-100,-100,0,0,100,0.00,40.00,0,-999,0,0.00
2013-1-31,87,62,43,-100,-100,-100,0,0,100,0.00,40.00,0,-999,0,0.00
2013-2-1,91,55,44,-100,-100,-100,0,0,100,0.00,40.00,0,-999,0,0.00
2013-2-2,64,57,51,-100,-100,-100,0,0,100,0.00,40.00,0,-999,0,0.00
2013-2-3,75,57,47,-100,-100,-100,0,0,100,0.00,40.00,0,-999,0,0.00
2013-2-4,82,59,47,-100,-100,-100,0,0,100,0.00,40.00,0,-999,0,0.00
2013-2-5,70,63,57,-100,-100,-100,0,0,100,0.00,40.00,0,-999,0,0.00
2013-2-6,77,60,47,-100,-100,-100,0,0,100,0.00,40.00,0,-999,0,0.00
2013-2-7,71,55,44,-100,-100,-100,0,0,100,0.00,40.00,0,-999,0,0.00
2013-2-8,61,55,50,-100,-100,-100,0,0,100,0.00,40.00,0,-999,0,0.00